Location: Brissac
(47.3500°N, 0.4500°W)
Time: 20:40:28
(UTC+01:00)

ISS - Visible Passes

Search period start: 12 November 2018 00:00
Search period end: 22 November 2018 00:00
Orbit: 402 x 409 km, 51.6° (Epoch: 13 November)

Date Brightness Start Highest point End Pass type
(mag) Time Alt. Az. Time Alt. Az. Time Alt. Az.
12 Nov -3.1 05:51:45 53° ESE 05:51:45 53° ESE 05:54:21 10° ESE visible
12 Nov -1.7 07:25:04 10° W 07:27:09 16° SW 07:29:14 10° S visible
13 Nov -0.4 05:02:03 11° ESE 05:02:03 11° ESE 05:02:16 10° ESE visible
13 Nov -2.6 06:34:44 25° WSW 06:35:18 26° SW 06:38:06 10° SSE visible
14 Nov -1.7 05:45:05 22° SSE 05:45:05 22° SSE 05:46:30 10° SE visible
15 Nov -1.4 06:28:13 12° SSW 06:28:13 12° SSW 06:28:56 10° SSW visible
